User: anonymous   Login
Location: Melbourne
(37.8170°S, 144.9670°E)
Time: 08:16:15
(UTC+10:00)
Language:

Aureole 2 Rocket - Orbit

View from above orbital plane
View from above orbital plane
View from above satellite
View from above satellite

Ground track
Ground track

The orbit data is extracted from the following two-line orbital elements,

1 07004U 73107B   16179.25274668  .00013312  00000-0  23532-3 0  9991
2 07004  73.9380 109.5289 0202122  69.5708 292.7070 15.30794312182745
Epoch (UTC): 27 June 2016 06:03:57
Eccentricity: 0.0202122
inclination: 73.9380°
perigee height: 335 km
apogee height: 612 km
right ascension of ascending node: 109.5289°
argument of perigee: 69.5708°
revolutions per day: 15.30794312
mean anomaly at epoch: 292.7070°
orbit number at epoch: 18274

The dashed part of the orbit path shows where the satellite is in the earth's shadow,  

DLR